Location: Gandikunta
(16.3784°N, 80.8378°E)
Time: 22:37:53
(UTC+00:00)

Terra - Pass Details

Date: 19 May 2025
Orbit: 690 x 692 km, 98.0° (Epoch: 12 June)

Event Time Altitude Azimuth Distance (km) Brightness Sun altitude
Exits shadow 15:54:11 16° 349° (N) 1,749 4.3 -36.7°
Drops below altitude 10° 15:55:09 10° 349° (N) 2,136 4.8 -36.9°
Sets 15:57:23 0° 349° (N) 3,053 5.7 -37.3°
